User: anonymous   Login
Location: Home
(42.5358°N, 72.7383°W)
Time: 16:04:43
(UTC-05:00)
Language:

AAUSAT CUBESAT 2 - Orbit

View from above orbital plane
View from above orbital plane
View from above satellite
View from above satellite

Ground track
Ground track

The orbit data is extracted from the following two-line orbital elements,

1 32788U 08021F   22021.49706926  .00002057  00000-0  18733-3 0  9998
2 32788  97.5213  12.2768 0010083 255.8824 104.1277 14.96188277746450
Epoch (UTC): 21 January 2022 11:55:46
Eccentricity: 0.0010083
inclination: 97.5213°
perigee height: 571 km
apogee height: 586 km
right ascension of ascending node: 12.2768°
argument of perigee: 255.8824°
revolutions per day: 14.96188277
mean anomaly at epoch: 104.1277°
orbit number at epoch: 74645

The dashed part of the orbit path shows where the satellite is in the earth's shadow,  

DLR